Volver al catálogo

AETHER-12

ActivoComunicacionesSSO
NORAD 67383·PAYLOAD·🇨🇦 Canada

Lanzado Jan 11, 2026 desde Vandenberg Space Force Base

Loading…

Próximos Pases (próximas 24 horas)

TLE

ActualizadoSource: Space-Track

Época: Sep 13, 2026, 23:01 UTC

1 67383U 26004W   26256.95940087  .00000666  00000-0  82986-4 0  9997
2 67383  97.8068 253.7982 0000171 328.5987  31.5218 14.85630834 36465

Sigue AETHER-12 en tiempo real con AllMySat

Download on the App Store